This is the latest recevied weather packets stored in our database for station/object HA3YA-WX. If no packets are shown the sender has not sent any weather packets the latest 10 day(s).
| Time | Temp. | Humidity | Pressure | Rain* | Wind** | Luminosity | Snow |
|---|---|---|---|---|---|---|---|
| 1777834892 | 16.67° C | 36% | 1004 hPa | - | - | - | - |
| 1777834293 | 16.67° C | 36% | 1004 hPa | - | - | - | - |
| 1777833692 | 17.22° C | 35% | 1004 hPa | - | - | - | - |
| 1777833093 | 17.78° C | 35% | 1004 hPa | - | - | - | - |
| 1777832496 | 17.78° C | 34% | 1004 hPa | - | - | - | - |
| 1777831892 | 18.33° C | 34% | 1004.5 hPa | - | - | - | - |
| 1777831293 | 18.89° C | 33% | 1004.4 hPa | - | - | - | - |
| 1777830693 | 20° C | 33% | 1004.4 hPa | - | - | - | - |
| 1777830092 | 20.56° C | 32% | 1004.4 hPa | - | - | - | - |
| 1777829493 | 20.56° C | 32% | 1004.4 hPa | - | - | - | - |
| 1777828892 | 21.67° C | 31% | 1004.4 hPa | - | - | - | - |
| 1777828293 | 22.22° C | 31% | 1004.4 hPa | - | - | - | - |
| 1777827693 | 22.78° C | 30% | 1004.4 hPa | - | - | - | - |
| 1777827093 | 22.78° C | 30% | 1004.4 hPa | - | - | - | - |
| 1777826493 | 23.33° C | 29% | 1004.4 hPa | - | - | - | - |
| 1777825892 | 24.44° C | 29% | 1004.4 hPa | - | - | - | - |
| 1777825293 | 25° C | 29% | 1004.4 hPa | - | - | - | - |
| 1777824692 | 26.11° C | 29% | 1004 hPa | - | - | - | - |
| 1777824093 | 26.11° C | 29% | 1004 hPa | - | - | - | - |
| 1777823493 | 26.11° C | 29% | 1004 hPa | - | - | - | - |
| 1777822893 | 26.11° C | 30% | 1004 hPa | - | - | - | - |
| 1777822292 | 26.67° C | 30% | 1004.6 hPa | - | - | - | - |
| 1777821693 | 26.11° C | 31% | 1004 hPa | - | - | - | - |
| 1777821093 | 25.56° C | 32% | 1004 hPa | - | - | - | - |
| 1777820493 | 25.56° C | 32% | 1004 hPa | - | - | - | - |
* Rain since midnight (hover to see other rain measurements)
** Current wind speed in m/s (hover to see current wind gust speed)